Location: Ku?niki
(51.4449°N, 17.8974°E)
Time: 10:37:30
(UTC+00:00)

EO-79 - Visible Passes

Search period start: 30 June 2022 00:00
Search period end: 10 July 2022 00:00
Orbit: 587 x 605 km, 98.0° (Epoch: 29 June)

Date Brightness Start Highest point End Pass type
(mag) Time Alt. Az. Time Alt. Az. Time Alt. Az.
30 Jun ? 00:47:34 10° NNE 00:51:49 88° W 00:55:23 14° SSW visible
30 Jun ? 23:23:10 10° NE 23:25:36 15° E 23:28:03 10° SE visible
01 Jul ? 00:57:30 10° N 01:01:43 71° WNW 01:05:23 13° SSW visible
01 Jul ? 23:32:40 10° NE 23:35:38 18° E 23:38:35 10° SE visible
02 Jul ? 01:07:27 10° N 01:11:37 57° WNW 01:15:23 12° SSW visible
02 Jul ? 23:42:17 10° NE 23:45:39 22° E 23:48:43 11° SE visible
03 Jul ? 01:17:26 10° N 01:21:29 46° WNW 01:25:23 11° SW visible
03 Jul ? 23:52:00 10° NE 23:55:38 27° E 23:58:43 13° SSE visible
04 Jul ? 01:27:26 10° N 01:31:21 38° WNW 01:35:16 10° SW visible
05 Jul ? 00:01:45 10° NNE 00:05:36 33° E 00:08:43 14° SSE visible
05 Jul ? 01:37:27 10° N 01:41:12 31° WNW 01:44:56 10° SW visible
06 Jul ? 00:11:32 10° NNE 00:15:34 41° E 00:18:42 16° SSE visible
06 Jul ? 01:47:30 10° N 01:51:02 26° WNW 01:54:33 10° WSW visible
07 Jul ? 00:21:22 10° NNE 00:25:31 51° E 00:28:41 16° S visible
08 Jul ? 00:31:13 10° NNE 00:35:27 64° ESE 00:38:40 17° S visible
08 Jul ? 23:08:25 10° ENE 23:09:01 10° E 23:09:36 10° E visible
09 Jul ? 00:41:05 10° NNE 00:45:21 80° ESE 00:48:39 17° S visible
09 Jul ? 23:17:06 10° ENE 23:19:03 13° E 23:21:00 10° ESE visible
